Location: Bonningues
(50.7927°N, 2.0150°E)
Time: 10:24:49
(UTC+00:00)

GENESIS II - Pass Details

Date: 08 August 2020
Orbit: 490 x 538 km, 64.5° (Epoch: 20 September)

Event Time Altitude Azimuth Distance (km) Brightness Sun altitude
Rises 23:28:39 0° 318° (NW) 2,693 8.7 -23.1°
Reaches altitude 10° 23:30:52 10° 320° (NW) 1,794 7.7 -23.2°
Enters shadow 23:34:46 76° 22° (NNE) 551 4.3 -23.2°
